Time,TemperatureF,DewpointF,PressureIn,WindDirection,WindDirectionDegrees,WindSpeedMPH,WindSpeedGustMPH,Humidity,HourlyPrecipIn,Conditions,Clouds,dailyrainin,SoftwareType,DateUTC
2013-02-10 00:00:00,37.2,33.1,29.97,North,0,0.0,0.0,85,0.00,,,0.00,WUHU21623XXSP,2013-02-10 06:00:00,
2013-02-10 00:05:00,37.2,33.4,29.95,North,0,0.0,0.0,86,0.00,,,0.00,WUHU21623XXSP,2013-02-10 06:05:00,
2013-02-10 00:10:00,37.2,33.4,29.95,North,0,0.0,0.0,86,0.00,,,0.00,WUHU21623XXSP,2013-02-10 06:10:00,
2013-02-10 00:15:00,37.2,33.4,29.95,North,0,0.0,0.0,86,0.00,,,0.00,WUHU21623XXSP,2013-02-10 06:15:00,
2013-02-10 00:20:00,37.2,33.4,29.93,North,0,0.0,0.0,86,0.00,,,0.00,WUHU21623XXSP,2013-02-10 06:20:00,
2013-02-10 00:25:00,37.2,33.4,29.93,North,0,0.0,0.0,86,0.00,,,0.00,WUHU21623XXSP,2013-02-10 06:25:00,
2013-02-10 00:30:00,37.2,33.4,29.92,North,0,0.0,0.0,86,0.00,,,0.00,WUHU21623XXSP,2013-02-10 06:30:00,
2013-02-10 00:35:00,37.2,33.4,29.93,North,0,0.0,0.0,86,0.00,,,0.00,WUHU21623XXSP,2013-02-10 06:35:00,
2013-02-10 00:40:00,37.2,33.4,29.93,North,0,0.0,0.0,86,0.00,,,0.00,WUHU21623XXSP,2013-02-10 06:40:00,
2013-02-10 00:45:00,37.2,33.7,29.93,North,0,0.0,0.0,87,0.00,,,0.00,WUHU21623XXSP,2013-02-10 06:45:00,
2013-02-10 00:50:00,37.2,33.7,29.92,North,0,0.0,0.0,87,0.00,,,0.00,WUHU21623XXSP,2013-02-10 06:50:00,
2013-02-10 00:55:00,37.2,33.7,29.92,North,0,0.0,0.0,87,0.00,,,0.00,WUHU21623XXSP,2013-02-10 06:55:00,
2013-02-10 01:00:00,37.4,33.8,29.92,North,0,0.0,0.0,87,0.00,,,0.00,WUHU21623XXSP,2013-02-10 07:00:00,
2013-02-10 01:05:00,37.4,33.8,29.92,North,0,0.0,0.0,87,0.00,,,0.00,WUHU21623XXSP,2013-02-10 07:05:00,
2013-02-10 01:10:00,37.4,33.8,29.92,North,0,0.0,0.0,87,0.00,,,0.00,WUHU21623XXSP,2013-02-10 07:10:00,
2013-02-10 01:15:00,37.6,34.0,29.92,North,0,0.0,0.0,87,0.00,,,0.00,WUHU21623XXSP,2013-02-10 07:15:00,
2013-02-10 01:20:00,37.6,34.0,29.92,North,0,0.0,0.0,87,0.00,,,0.00,WUHU21623XXSP,2013-02-10 07:20:00,
2013-02-10 01:25:00,37.6,34.0,29.92,North,0,0.0,0.0,87,0.00,,,0.00,WUHU21623XXSP,2013-02-10 07:25:00,
2013-02-10 01:30:00,37.6,34.0,29.91,North,0,0.0,0.0,87,0.00,,,0.00,WUHU21623XXSP,2013-02-10 07:30:00,
2013-02-10 01:35:00,37.6,34.0,29.92,North,0,0.0,0.0,87,0.00,,,0.00,WUHU21623XXSP,2013-02-10 07:35:00,
2013-02-10 01:40:00,37.8,34.2,29.92,North,0,0.0,0.0,87,0.00,,,0.00,WUHU21623XXSP,2013-02-10 07:40:00,
2013-02-10 01:45:00,37.8,34.2,29.92,North,0,0.0,0.0,87,0.00,,,0.00,WUHU21623XXSP,2013-02-10 07:45:00,
2013-02-10 01:50:00,37.8,34.2,29.91,North,0,0.0,0.0,87,0.00,,,0.00,WUHU21623XXSP,2013-02-10 07:50:00,
2013-02-10 01:55:00,37.8,34.2,29.90,North,0,0.0,0.0,87,0.00,,,0.00,WUHU21623XXSP,2013-02-10 07:55:00,
2013-02-10 02:00:00,37.8,34.2,29.89,North,0,0.0,0.0,87,0.00,,,0.00,WUHU21623XXSP,2013-02-10 08:00:00,
2013-02-10 02:05:00,37.8,34.2,29.89,North,0,0.0,0.0,87,0.00,,,0.00,WUHU21623XXSP,2013-02-10 08:05:00,
2013-02-10 02:10:00,37.8,34.2,29.89,North,0,0.0,0.0,87,0.00,,,0.00,WUHU21623XXSP,2013-02-10 08:10:00,
2013-02-10 02:15:00,37.8,34.2,29.89,North,0,0.0,0.0,87,0.00,,,0.00,WUHU21623XXSP,2013-02-10 08:15:00,
2013-02-10 02:20:00,37.8,34.5,29.89,North,0,0.0,0.0,88,0.00,,,0.00,WUHU21623XXSP,2013-02-10 08:20:00,
2013-02-10 02:25:00,37.8,34.5,29.88,North,0,0.0,0.0,88,0.00,,,0.00,WUHU21623XXSP,2013-02-10 08:25:00,
2013-02-10 02:30:00,37.8,34.5,29.87,North,0,0.0,0.0,88,0.00,,,0.00,WUHU21623XXSP,2013-02-10 08:30:00,
2013-02-10 02:35:00,37.8,34.5,29.86,North,0,0.0,0.0,88,0.00,,,0.00,WUHU21623XXSP,2013-02-10 08:35:00,
2013-02-10 02:40:00,37.9,34.7,29.86,North,0,0.0,0.0,88,0.00,,,0.00,WUHU21623XXSP,2013-02-10 08:40:00,
2013-02-10 02:45:00,37.9,34.7,29.86,North,0,0.0,0.0,88,0.00,,,0.00,WUHU21623XXSP,2013-02-10 08:45:00,
2013-02-10 02:50:00,37.9,34.7,29.86,North,0,0.0,0.0,88,0.00,,,0.00,WUHU21623XXSP,2013-02-10 08:50:00,
2013-02-10 02:55:00,37.9,34.7,29.86,North,0,0.0,0.0,88,0.00,,,0.00,WUHU21623XXSP,2013-02-10 08:55:00,
2013-02-10 03:00:00,37.9,34.7,29.86,North,0,0.0,0.0,88,0.00,,,0.00,WUHU21623XXSP,2013-02-10 09:00:00,
2013-02-10 03:05:00,37.9,34.7,29.85,North,0,0.0,0.0,88,0.00,,,0.00,WUHU21623XXSP,2013-02-10 09:05:00,
2013-02-10 03:10:00,38.1,34.7,29.85,North,0,0.0,0.0,88,0.00,,,0.00,WUHU21623XXSP,2013-02-10 09:10:00,
2013-02-10 03:15:00,38.1,35.1,29.84,North,0,0.0,0.0,89,0.00,,,0.00,WUHU21623XXSP,2013-02-10 09:15:00,
2013-02-10 03:20:00,38.3,35.3,29.84,North,0,0.0,0.0,89,0.00,,,0.00,WUHU21623XXSP,2013-02-10 09:20:00,
2013-02-10 03:25:00,38.5,35.5,29.84,North,0,0.0,0.0,89,0.00,,,0.00,WUHU21623XXSP,2013-02-10 09:25:00,
2013-02-10 03:30:00,38.5,35.5,29.84,North,0,0.0,0.0,89,0.00,,,0.00,WUHU21623XXSP,2013-02-10 09:30:00,
2013-02-10 03:35:00,38.5,35.5,29.84,North,0,0.0,0.0,89,0.00,,,0.00,WUHU21623XXSP,2013-02-10 09:35:00,
2013-02-10 03:40:00,38.5,35.5,29.84,North,0,0.0,0.0,89,0.00,,,0.00,WUHU21623XXSP,2013-02-10 09:40:00,
2013-02-10 03:45:00,38.8,35.9,29.84,North,0,0.0,0.0,89,0.00,,,0.00,WUHU21623XXSP,2013-02-10 09:45:00,
2013-02-10 03:50:00,38.8,35.9,29.82,North,0,0.0,0.0,89,0.00,,,0.00,WUHU21623XXSP,2013-02-10 09:50:00,
2013-02-10 03:55:00,38.8,35.9,29.82,North,0,0.0,0.0,89,0.00,,,0.00,WUHU21623XXSP,2013-02-10 09:55:00,
2013-02-10 04:01:00,38.8,35.9,29.81,North,0,0.0,0.0,89,0.00,,,0.00,WUHU21623XXSP,2013-02-10 10:01:00,
2013-02-10 04:06:00,38.8,35.9,29.81,North,0,0.0,0.0,89,0.00,,,0.00,WUHU21623XXSP,2013-02-10 10:06:00,
2013-02-10 04:11:00,39.0,36.0,29.80,North,0,0.0,0.0,89,0.00,,,0.00,WUHU21623XXSP,2013-02-10 10:11:00,
2013-02-10 04:16:00,39.0,36.0,29.80,North,0,0.0,0.0,89,0.00,,,0.00,WUHU21623XXSP,2013-02-10 10:16:00,
2013-02-10 04:21:00,39.0,36.0,29.79,North,0,0.0,0.0,89,0.00,,,0.00,WUHU21623XXSP,2013-02-10 10:21:00,
2013-02-10 04:26:00,39.0,36.0,29.79,North,0,0.0,0.0,89,0.00,,,0.00,WUHU21623XXSP,2013-02-10 10:26:00,
2013-02-10 04:31:00,39.0,36.0,29.78,North,0,0.0,0.0,89,0.00,,,0.00,WUHU21623XXSP,2013-02-10 10:31:00,
2013-02-10 04:36:00,39.4,36.2,29.79,North,0,0.0,0.0,89,0.00,,,0.00,WUHU21623XXSP,2013-02-10 10:36:00,
2013-02-10 04:41:00,39.4,36.4,29.79,North,0,0.0,0.0,89,0.00,,,0.00,WUHU21623XXSP,2013-02-10 10:41:00,
2013-02-10 04:46:00,39.4,36.4,29.78,North,0,0.0,0.0,89,0.00,,,0.00,WUHU21623XXSP,2013-02-10 10:46:00,
2013-02-10 04:51:00,39.6,36.7,29.78,North,0,0.0,0.0,90,0.00,,,0.00,WUHU21623XXSP,2013-02-10 10:51:00,
2013-02-10 04:56:00,39.6,36.9,29.78,North,0,0.0,0.0,90,0.00,,,0.00,WUHU21623XXSP,2013-02-10 10:56:00,
2013-02-10 05:01:00,39.7,37.0,29.78,North,0,0.0,0.0,90,0.00,,,0.00,WUHU21623XXSP,2013-02-10 11:01:00,
2013-02-10 05:06:00,39.9,37.0,29.78,North,0,0.0,0.0,90,0.00,,,0.00,WUHU21623XXSP,2013-02-10 11:06:00,
2013-02-10 05:11:00,39.9,37.2,29.77,North,0,0.0,0.0,90,0.00,,,0.00,WUHU21623XXSP,2013-02-10 11:11:00,
2013-02-10 05:16:00,39.9,37.2,29.76,North,0,0.0,0.0,90,0.00,,,0.00,WUHU21623XXSP,2013-02-10 11:16:00,
2013-02-10 05:21:00,40.1,37.4,29.76,North,0,0.0,0.0,90,0.00,,,0.00,WUHU21623XXSP,2013-02-10 11:21:00,
2013-02-10 05:26:00,40.1,37.4,29.75,North,0,0.0,0.0,90,0.00,,,0.00,WUHU21623XXSP,2013-02-10 11:26:00,
2013-02-10 05:31:00,40.1,37.4,29.75,North,0,0.0,0.0,90,0.00,,,0.00,WUHU21623XXSP,2013-02-10 11:31:00,
2013-02-10 05:36:00,40.3,37.6,29.75,North,0,0.0,0.0,90,0.00,,,0.00,WUHU21623XXSP,2013-02-10 11:36:00,
2013-02-10 05:41:00,40.3,37.6,29.74,North,0,0.0,0.0,90,0.00,,,0.00,WUHU21623XXSP,2013-02-10 11:41:00,
2013-02-10 05:46:00,40.3,37.6,29.74,North,0,0.0,0.0,90,0.00,,,0.00,WUHU21623XXSP,2013-02-10 11:46:00,
2013-02-10 05:51:00,40.5,37.8,29.74,North,0,0.0,0.0,90,0.00,,,0.00,WUHU21623XXSP,2013-02-10 11:51:00,
2013-02-10 05:56:00,40.6,37.8,29.73,North,0,0.0,0.0,90,0.00,,,0.00,WUHU21623XXSP,2013-02-10 11:56:00,
2013-02-10 06:01:00,40.6,37.9,29.72,North,0,0.0,0.0,90,0.00,,,0.00,WUHU21623XXSP,2013-02-10 12:01:00,
2013-02-10 06:06:00,40.6,37.9,29.74,North,0,0.0,0.0,90,0.00,,,0.00,WUHU21623XXSP,2013-02-10 12:06:00,
2013-02-10 06:11:00,40.8,37.9,29.73,North,0,0.0,0.0,90,0.00,,,0.00,WUHU21623XXSP,2013-02-10 12:11:00,
2013-02-10 06:16:00,40.8,38.1,29.73,North,0,0.0,0.0,90,0.00,,,0.00,WUHU21623XXSP,2013-02-10 12:16:00,
2013-02-10 06:21:00,40.8,38.1,29.74,North,0,0.0,0.0,90,0.00,,,0.00,WUHU21623XXSP,2013-02-10 12:21:00,
2013-02-10 06:26:00,40.8,38.1,29.74,North,0,0.0,0.0,90,0.00,,,0.00,WUHU21623XXSP,2013-02-10 12:26:00,
2013-02-10 06:31:00,40.8,38.1,29.72,North,0,0.0,0.0,90,0.00,,,0.00,WUHU21623XXSP,2013-02-10 12:31:00,
2013-02-10 06:36:00,41.0,38.3,29.71,North,0,0.0,0.0,90,0.00,,,0.00,WUHU21623XXSP,2013-02-10 12:36:00,
2013-02-10 06:41:00,41.2,38.3,29.71,North,0,0.0,0.0,90,0.00,,,0.00,WUHU21623XXSP,2013-02-10 12:41:00,
2013-02-10 06:46:00,41.2,38.5,29.71,North,0,0.0,0.0,90,0.00,,,0.00,WUHU21623XXSP,2013-02-10 12:46:00,
2013-02-10 06:51:00,41.2,38.5,29.71,North,0,0.0,0.0,90,0.00,,,0.00,WUHU21623XXSP,2013-02-10 12:51:00,
2013-02-10 06:56:00,41.4,38.5,29.71,North,0,0.0,0.0,90,0.00,,,0.00,WUHU21623XXSP,2013-02-10 12:56:00,
2013-02-10 07:01:00,41.5,38.7,29.71,North,0,0.0,0.0,90,0.00,,,0.00,WUHU21623XXSP,2013-02-10 13:01:00,
2013-02-10 07:06:00,41.5,38.8,29.71,North,0,0.0,0.0,90,0.00,,,0.00,WUHU21623XXSP,2013-02-10 13:06:00,
2013-02-10 07:11:00,41.7,39.3,29.71,North,0,0.0,0.0,91,0.00,,,0.00,WUHU21623XXSP,2013-02-10 13:11:00,
2013-02-10 07:16:00,41.9,39.5,29.71,North,0,0.0,0.0,91,0.00,,,0.00,WUHU21623XXSP,2013-02-10 13:16:00,
2013-02-10 07:21:00,42.1,39.6,29.71,North,0,0.0,0.0,91,0.00,,,0.00,WUHU21623XXSP,2013-02-10 13:21:00,
2013-02-10 07:26:00,42.1,39.6,29.70,North,0,0.0,0.0,91,0.00,,,0.00,WUHU21623XXSP,2013-02-10 13:26:00,
2013-02-10 07:31:00,42.4,40.0,29.69,North,0,0.0,0.0,91,0.00,,,0.00,WUHU21623XXSP,2013-02-10 13:31:00,
2013-02-10 07:36:00,42.6,40.0,29.69,North,0,0.0,0.0,91,0.00,,,0.00,WUHU21623XXSP,2013-02-10 13:36:00,
2013-02-10 07:41:00,42.6,40.2,29.69,North,0,0.0,0.0,91,0.00,,,0.00,WUHU21623XXSP,2013-02-10 13:41:00,
2013-02-10 07:46:00,42.6,40.2,29.68,North,0,0.0,0.0,91,0.00,,,0.00,WUHU21623XXSP,2013-02-10 13:46:00,
2013-02-10 07:51:00,43.0,40.5,29.67,North,0,0.0,0.0,91,0.00,,,0.00,WUHU21623XXSP,2013-02-10 13:51:00,
2013-02-10 07:56:00,43.0,40.5,29.68,North,0,0.0,0.0,91,0.00,,,0.00,WUHU21623XXSP,2013-02-10 13:56:00,
2013-02-10 08:01:00,43.3,40.9,29.66,North,0,0.0,0.0,91,0.00,,,0.00,WUHU21623XXSP,2013-02-10 14:01:00,
2013-02-10 08:06:00,43.3,40.9,29.66,North,0,0.0,0.0,91,0.00,,,0.00,WUHU21623XXSP,2013-02-10 14:06:00,
2013-02-10 08:11:00,43.5,41.1,29.67,North,0,0.0,0.0,91,0.00,,,0.00,WUHU21623XXSP,2013-02-10 14:11:00,
2013-02-10 08:16:00,43.9,41.5,29.67,North,0,0.0,0.0,91,0.00,,,0.00,WUHU21623XXSP,2013-02-10 14:16:00,
2013-02-10 08:21:00,44.2,41.5,29.67,North,0,0.0,0.0,91,0.00,,,0.00,WUHU21623XXSP,2013-02-10 14:21:00,
2013-02-10 08:26:00,44.2,41.8,29.66,North,0,0.0,0.0,91,0.00,,,0.00,WUHU21623XXSP,2013-02-10 14:26:00,
2013-02-10 08:31:00,44.4,41.8,29.66,North,0,0.0,0.0,91,0.00,,,0.00,WUHU21623XXSP,2013-02-10 14:31:00,
2013-02-10 08:36:00,44.4,42.0,29.65,North,0,0.0,0.0,91,0.00,,,0.00,WUHU21623XXSP,2013-02-10 14:36:00,
2013-02-10 08:41:00,44.8,42.6,29.65,North,0,0.0,0.0,92,0.00,,,0.00,WUHU21623XXSP,2013-02-10 14:41:00,
2013-02-10 08:46:00,45.0,42.8,29.65,North,0,0.0,0.0,92,0.00,,,0.00,WUHU21623XXSP,2013-02-10 14:46:00,
2013-02-10 08:51:00,45.0,42.8,29.64,North,0,0.0,0.0,92,0.00,,,0.00,WUHU21623XXSP,2013-02-10 14:51:00,
2013-02-10 08:56:00,45.1,43.0,29.65,North,0,0.0,0.0,92,0.00,,,0.00,WUHU21623XXSP,2013-02-10 14:56:00,
2013-02-10 09:01:00,45.1,43.0,29.64,North,0,0.0,0.0,92,0.00,,,0.00,WUHU21623XXSP,2013-02-10 15:01:00,
2013-02-10 09:06:00,45.3,43.2,29.63,North,0,0.0,0.0,92,0.00,,,0.00,WUHU21623XXSP,2013-02-10 15:06:00,
2013-02-10 09:11:00,45.5,43.3,29.62,North,0,0.0,0.0,92,0.00,,,0.00,WUHU21623XXSP,2013-02-10 15:11:00,
2013-02-10 09:16:00,45.7,43.5,29.63,North,0,0.0,0.0,92,0.00,,,0.00,WUHU21623XXSP,2013-02-10 15:16:00,
2013-02-10 09:21:00,46.0,43.9,29.63,North,0,0.0,0.0,92,0.00,,,0.00,WUHU21623XXSP,2013-02-10 15:21:00,
2013-02-10 09:26:00,46.2,44.1,29.62,North,0,0.0,0.0,92,0.00,,,0.00,WUHU21623XXSP,2013-02-10 15:26:00,
2013-02-10 09:31:00,46.6,44.4,29.62,North,0,0.0,0.0,92,0.00,,,0.00,WUHU21623XXSP,2013-02-10 15:31:00,
2013-02-10 09:36:00,46.9,44.8,29.62,North,0,0.0,0.0,92,0.00,,,0.00,WUHU21623XXSP,2013-02-10 15:36:00,
2013-02-10 09:41:00,47.5,45.1,29.61,North,0,0.0,0.0,92,0.00,,,0.00,WUHU21623XXSP,2013-02-10 15:41:00,
2013-02-10 09:46:00,48.0,45.9,29.61,North,0,0.0,0.0,92,0.00,,,0.00,WUHU21623XXSP,2013-02-10 15:46:00,
2013-02-10 09:51:00,48.4,46.2,29.61,North,0,0.0,0.0,92,0.00,,,0.00,WUHU21623XXSP,2013-02-10 15:51:00,
2013-02-10 09:56:00,48.7,46.5,29.61,North,0,0.0,0.0,92,0.00,,,0.00,WUHU21623XXSP,2013-02-10 15:56:00,
2013-02-10 10:01:00,49.1,46.9,29.62,North,0,0.0,0.0,92,0.00,,,0.00,WUHU21623XXSP,2013-02-10 16:01:00,
2013-02-10 10:06:00,49.1,46.9,29.61,North,0,0.0,0.0,92,0.00,,,0.00,WUHU21623XXSP,2013-02-10 16:06:00,
2013-02-10 10:11:00,49.3,47.0,29.61,North,0,0.0,0.0,92,0.00,,,0.00,WUHU21623XXSP,2013-02-10 16:11:00,
2013-02-10 10:16:00,49.8,47.4,29.61,North,0,0.0,0.0,92,0.00,,,0.00,WUHU21623XXSP,2013-02-10 16:16:00,
2013-02-10 10:21:00,50.4,47.7,29.61,North,0,0.0,0.0,92,0.00,,,0.00,WUHU21623XXSP,2013-02-10 16:21:00,
2013-02-10 10:26:00,50.7,48.4,29.61,North,0,0.0,0.0,92,0.00,,,0.00,WUHU21623XXSP,2013-02-10 16:26:00,
2013-02-10 10:31:00,50.7,48.4,29.61,North,0,0.0,0.0,92,0.00,,,0.00,WUHU21623XXSP,2013-02-10 16:31:00,
2013-02-10 10:36:00,50.7,48.4,29.60,North,0,0.0,0.0,92,0.00,,,0.00,WUHU21623XXSP,2013-02-10 16:36:00,
2013-02-10 10:41:00,50.5,48.2,29.61,North,0,0.0,0.0,92,0.00,,,0.00,WUHU21623XXSP,2013-02-10 16:41:00,
2013-02-10 10:46:00,50.7,48.1,29.60,North,0,0.0,0.0,91,0.00,,,0.00,WUHU21623XXSP,2013-02-10 16:46:00,
2013-02-10 10:51:00,50.7,48.1,29.61,North,0,0.0,0.0,91,0.00,,,0.00,WUHU21623XXSP,2013-02-10 16:51:00,
2013-02-10 10:56:00,50.9,48.3,29.60,North,0,0.0,0.0,91,0.00,,,0.00,WUHU21623XXSP,2013-02-10 16:56:00,
2013-02-10 11:01:00,51.1,48.5,29.60,North,0,0.0,0.0,91,0.00,,,0.00,WUHU21623XXSP,2013-02-10 17:01:00,
2013-02-10 11:06:00,51.1,48.5,29.60,North,0,0.0,0.0,91,0.00,,,0.00,WUHU21623XXSP,2013-02-10 17:06:00,
2013-02-10 11:11:00,51.3,48.7,29.60,North,0,0.0,0.0,91,0.00,,,0.00,WUHU21623XXSP,2013-02-10 17:11:00,
2013-02-10 11:16:00,51.4,48.7,29.60,North,0,0.0,0.0,91,0.00,,,0.00,WUHU21623XXSP,2013-02-10 17:16:00,
2013-02-10 11:22:00,51.4,48.6,29.59,North,0,0.0,0.0,90,0.00,,,0.00,WUHU21623XXSP,2013-02-10 17:22:00,
2013-02-10 11:27:00,51.6,48.7,29.59,North,0,0.0,0.0,90,0.00,,,0.00,WUHU21623XXSP,2013-02-10 17:27:00,
2013-02-10 11:32:00,51.8,48.7,29.58,North,0,0.0,0.0,90,0.00,,,0.00,WUHU21623XXSP,2013-02-10 17:32:00,
2013-02-10 11:37:00,52.0,49.1,29.59,North,0,0.0,0.0,90,0.00,,,0.00,WUHU21623XXSP,2013-02-10 17:37:00,
2013-02-10 11:42:00,52.0,49.1,29.58,North,0,0.0,0.0,89,0.00,,,0.00,WUHU21623XXSP,2013-02-10 17:42:00,
2013-02-10 11:47:00,52.2,49.0,29.57,North,0,0.0,0.0,89,0.00,,,0.00,WUHU21623XXSP,2013-02-10 17:47:00,
2013-02-10 11:52:00,52.3,49.2,29.58,North,0,0.0,0.0,89,0.00,,,0.00,WUHU21623XXSP,2013-02-10 17:52:00,
2013-02-10 11:57:00,52.5,49.3,29.57,North,0,0.0,0.0,89,0.00,,,0.00,WUHU21623XXSP,2013-02-10 17:57:00,
2013-02-10 12:02:00,52.9,49.7,29.57,North,0,0.0,0.0,89,0.00,,,0.00,WUHU21623XXSP,2013-02-10 18:02:00,
2013-02-10 12:07:00,52.9,49.7,29.57,North,0,0.0,0.0,89,0.00,,,0.00,WUHU21623XXSP,2013-02-10 18:07:00,
2013-02-10 12:12:00,53.4,50.2,29.56,North,0,0.0,0.0,89,0.00,,,0.00,WUHU21623XXSP,2013-02-10 18:12:00,
2013-02-10 12:17:00,54.3,51.1,29.56,North,0,0.0,0.0,89,0.00,,,0.00,WUHU21623XXSP,2013-02-10 18:17:00,
2013-02-10 12:22:00,55.0,51.5,29.56,North,0,0.0,0.0,88,0.00,,,0.00,WUHU21623XXSP,2013-02-10 18:22:00,
2013-02-10 12:27:00,55.6,51.7,29.56,North,0,0.0,0.0,87,0.00,,,0.00,WUHU21623XXSP,2013-02-10 18:27:00,
2013-02-10 12:32:00,55.9,52.1,29.55,North,0,0.0,0.0,87,0.00,,,0.00,WUHU21623XXSP,2013-02-10 18:32:00,
2013-02-10 12:37:00,56.5,52.3,29.55,North,0,0.0,0.0,86,0.00,,,0.00,WUHU21623XXSP,2013-02-10 18:37:00,
2013-02-10 12:42:00,57.4,52.8,29.55,North,0,0.0,0.0,85,0.00,,,0.00,WUHU21623XXSP,2013-02-10 18:42:00,
2013-02-10 12:47:00,57.7,52.9,29.55,North,0,0.0,0.0,84,0.00,,,0.00,WUHU21623XXSP,2013-02-10 18:47:00,
2013-02-10 12:52:00,57.9,52.8,29.54,North,0,0.0,0.0,83,0.00,,,0.00,WUHU21623XXSP,2013-02-10 18:52:00,
2013-02-10 12:57:00,58.5,53.3,29.53,North,0,0.0,0.0,83,0.00,,,0.00,WUHU21623XXSP,2013-02-10 18:57:00,
2013-02-10 13:02:00,58.8,53.3,29.54,North,0,0.0,0.0,82,0.00,,,0.00,WUHU21623XXSP,2013-02-10 19:02:00,
2013-02-10 13:07:00,58.8,53.0,29.53,North,0,0.0,0.0,81,0.00,,,0.00,WUHU21623XXSP,2013-02-10 19:07:00,
2013-02-10 13:12:00,58.8,52.3,29.53,North,0,0.0,0.0,79,0.00,,,0.00,WUHU21623XXSP,2013-02-10 19:12:00,
2013-02-10 13:17:00,58.8,52.3,29.52,North,0,0.0,0.0,79,0.00,,,0.00,WUHU21623XXSP,2013-02-10 19:17:00,
2013-02-10 13:22:00,59.4,52.5,29.52,North,0,0.0,0.0,78,0.00,,,0.00,WUHU21623XXSP,2013-02-10 19:22:00,
2013-02-10 13:27:00,59.5,52.7,29.51,North,0,0.0,0.0,77,0.00,,,0.00,WUHU21623XXSP,2013-02-10 19:27:00,
2013-02-10 13:32:00,59.7,52.2,29.51,North,0,0.0,0.0,76,0.00,,,0.00,WUHU21623XXSP,2013-02-10 19:32:00,
2013-02-10 13:37:00,59.9,52.2,29.50,North,0,0.0,0.0,76,0.00,,,0.00,WUHU21623XXSP,2013-02-10 19:37:00,
2013-02-10 13:42:00,60.1,52.5,29.51,North,0,0.0,0.0,76,0.00,,,0.00,WUHU21623XXSP,2013-02-10 19:42:00,
2013-02-10 13:47:00,60.4,52.5,29.51,North,0,0.0,0.0,75,0.00,,,0.00,WUHU21623XXSP,2013-02-10 19:47:00,
2013-02-10 13:52:00,60.6,52.3,29.51,North,0,0.0,0.0,74,0.00,,,0.00,WUHU21623XXSP,2013-02-10 19:52:00,
2013-02-10 13:57:00,61.0,52.3,29.50,North,0,0.0,0.0,73,0.00,,,0.00,WUHU21623XXSP,2013-02-10 19:57:00,
2013-02-10 14:02:00,61.2,52.5,29.50,North,0,0.0,0.0,73,0.00,,,0.00,WUHU21623XXSP,2013-02-10 20:02:00,
2013-02-10 14:07:00,61.0,51.4,29.50,North,0,0.0,0.0,70,0.00,,,0.00,WUHU21623XXSP,2013-02-10 20:07:00,
2013-02-10 14:12:00,61.0,51.2,29.50,North,0,0.0,0.0,68,0.00,,,0.00,WUHU21623XXSP,2013-02-10 20:12:00,
2013-02-10 14:17:00,61.0,50.8,29.50,North,0,0.0,0.0,68,0.00,,,0.00,WUHU21623XXSP,2013-02-10 20:17:00,
2013-02-10 14:22:00,61.3,50.6,29.50,North,0,0.0,0.0,67,0.00,,,0.00,WUHU21623XXSP,2013-02-10 20:22:00,
2013-02-10 14:27:00,61.7,50.5,29.50,North,0,0.0,0.0,64,0.00,,,0.00,WUHU21623XXSP,2013-02-10 20:27:00,
2013-02-10 14:32:00,61.5,47.1,29.50,North,0,0.0,0.0,59,0.00,,,0.00,WUHU21623XXSP,2013-02-10 20:32:00,
2013-02-10 14:37:00,61.3,45.5,29.50,North,0,0.0,0.0,56,0.00,,,0.00,WUHU21623XXSP,2013-02-10 20:37:00,
2013-02-10 14:42:00,61.3,45.5,29.50,North,0,0.0,0.0,56,0.00,,,0.00,WUHU21623XXSP,2013-02-10 20:42:00,
2013-02-10 14:47:00,61.3,44.0,29.50,North,0,0.0,0.0,53,0.00,,,0.00,WUHU21623XXSP,2013-02-10 20:47:00,
2013-02-10 14:52:00,61.5,42.6,29.50,North,0,0.0,0.0,49,0.00,,,0.00,WUHU21623XXSP,2013-02-10 20:52:00,
2013-02-10 14:57:00,61.5,41.6,29.50,North,0,0.0,0.0,48,0.00,,,0.00,WUHU21623XXSP,2013-02-10 20:57:00,
2013-02-10 15:02:00,61.5,40.4,29.50,North,0,0.0,0.0,46,0.00,,,0.00,WUHU21623XXSP,2013-02-10 21:02:00,
2013-02-10 15:07:00,61.3,39.7,29.51,North,0,0.0,0.0,45,0.00,,,0.00,WUHU21623XXSP,2013-02-10 21:07:00,
2013-02-10 15:12:00,61.3,39.1,29.51,North,0,0.0,0.0,44,0.00,,,0.00,WUHU21623XXSP,2013-02-10 21:12:00,
2013-02-10 15:17:00,61.3,38.5,29.51,North,0,0.0,0.0,44,0.00,,,0.00,WUHU21623XXSP,2013-02-10 21:17:00,
2013-02-10 15:22:00,61.3,39.1,29.51,North,0,0.0,0.0,44,0.00,,,0.00,WUHU21623XXSP,2013-02-10 21:22:00,
2013-02-10 15:27:00,61.3,38.5,29.51,North,0,0.0,0.0,43,0.00,,,0.00,WUHU21623XXSP,2013-02-10 21:27:00,
2013-02-10 15:32:00,61.2,37.8,29.51,North,0,0.0,0.0,42,0.00,,,0.00,WUHU21623XXSP,2013-02-10 21:32:00,
2013-02-10 15:38:00,61.0,37.6,29.51,North,0,0.0,0.0,42,0.00,,,0.00,WUHU21623XXSP,2013-02-10 21:38:00,
2013-02-10 15:43:00,61.0,37.6,29.51,North,0,0.0,0.0,42,0.00,,,0.00,WUHU21623XXSP,2013-02-10 21:43:00,
2013-02-10 15:48:00,60.6,36.7,29.51,North,0,0.0,0.0,41,0.00,,,0.00,WUHU21623XXSP,2013-02-10 21:48:00,
2013-02-10 15:53:00,60.6,37.3,29.51,North,0,0.0,0.0,42,0.00,,,0.00,WUHU21623XXSP,2013-02-10 21:53:00,
2013-02-10 15:58:00,60.4,37.3,29.50,North,0,0.0,0.0,43,0.00,,,0.00,WUHU21623XXSP,2013-02-10 21:58:00,
2013-02-10 16:03:00,60.4,37.1,29.51,North,0,0.0,0.0,42,0.00,,,0.00,WUHU21623XXSP,2013-02-10 22:03:00,
2013-02-10 16:08:00,60.4,37.7,29.51,North,0,0.0,0.0,43,0.00,,,0.00,WUHU21623XXSP,2013-02-10 22:08:00,
2013-02-10 16:13:00,60.1,36.8,29.51,North,0,0.0,0.0,42,0.00,,,0.00,WUHU21623XXSP,2013-02-10 22:13:00,
2013-02-10 16:18:00,60.1,37.4,29.53,North,0,0.0,0.0,43,0.00,,,0.00,WUHU21623XXSP,2013-02-10 22:18:00,
2013-02-10 16:23:00,60.1,36.8,29.53,North,0,0.0,0.0,42,0.00,,,0.00,WUHU21623XXSP,2013-02-10 22:23:00,
2013-02-10 16:28:00,59.9,35.5,29.53,North,0,0.0,0.0,40,0.00,,,0.00,WUHU21623XXSP,2013-02-10 22:28:00,
2013-02-10 16:33:00,59.5,35.9,29.54,North,0,0.0,0.0,41,0.00,,,0.00,WUHU21623XXSP,2013-02-10 22:33:00,
2013-02-10 16:38:00,59.5,35.8,29.54,North,0,0.0,0.0,41,0.00,,,0.00,WUHU21623XXSP,2013-02-10 22:38:00,
2013-02-10 16:43:00,59.2,35.0,29.55,North,0,0.0,0.0,40,0.00,,,0.00,WUHU21623XXSP,2013-02-10 22:43:00,
2013-02-10 16:48:00,58.8,35.7,29.56,North,0,0.0,0.0,42,0.00,,,0.00,WUHU21623XXSP,2013-02-10 22:48:00,
2013-02-10 16:53:00,58.8,36.3,29.56,North,0,0.0,0.0,43,0.00,,,0.00,WUHU21623XXSP,2013-02-10 22:53:00,
2013-02-10 16:58:00,58.3,36.4,29.56,North,0,0.0,0.0,44,0.00,,,0.00,WUHU21623XXSP,2013-02-10 22:58:00,
2013-02-10 17:03:00,57.7,36.4,29.56,North,0,0.0,0.0,45,0.00,,,0.00,WUHU21623XXSP,2013-02-10 23:03:00,
2013-02-10 17:08:00,57.0,36.7,29.58,North,0,0.0,0.0,46,0.00,,,0.00,WUHU21623XXSP,2013-02-10 23:08:00,
2013-02-10 17:13:00,56.5,36.4,29.58,North,0,0.0,0.0,47,0.00,,,0.00,WUHU21623XXSP,2013-02-10 23:13:00,
2013-02-10 17:18:00,55.9,35.9,29.59,North,0,0.0,0.0,47,0.00,,,0.00,WUHU21623XXSP,2013-02-10 23:18:00,
2013-02-10 17:23:00,55.2,35.8,29.59,North,0,0.0,0.0,48,0.00,,,0.00,WUHU21623XXSP,2013-02-10 23:23:00,
2013-02-10 17:28:00,55.0,35.6,29.59,North,0,0.0,0.0,48,0.00,,,0.00,WUHU21623XXSP,2013-02-10 23:28:00,
2013-02-10 17:33:00,54.3,35.5,29.60,North,0,0.0,0.0,49,0.00,,,0.00,WUHU21623XXSP,2013-02-10 23:33:00,
2013-02-10 17:38:00,53.8,35.6,29.60,North,0,0.0,0.0,50,0.00,,,0.00,WUHU21623XXSP,2013-02-10 23:38:00,
2013-02-10 17:43:00,53.8,35.6,29.61,North,0,0.0,0.0,50,0.00,,,0.00,WUHU21623XXSP,2013-02-10 23:43:00,
2013-02-10 17:48:00,53.2,35.5,29.61,North,0,0.0,0.0,51,0.00,,,0.00,WUHU21623XXSP,2013-02-10 23:48:00,
2013-02-10 17:53:00,53.2,35.5,29.61,North,0,0.0,0.0,51,0.00,,,0.00,WUHU21623XXSP,2013-02-10 23:53:00,
2013-02-10 17:58:00,52.9,35.2,29.62,North,0,0.0,0.0,51,0.00,,,0.00,WUHU21623XXSP,2013-02-10 23:58:00,
2013-02-10 18:03:00,52.7,35.1,29.62,North,0,0.0,0.0,51,0.00,,,0.00,WUHU21623XXSP,2013-02-11 00:03:00,
2013-02-10 18:08:00,52.5,34.9,29.62,North,0,0.0,0.0,50,0.00,,,0.00,WUHU21623XXSP,2013-02-11 00:08:00,
2013-02-10 18:13:00,52.3,34.3,29.63,North,0,0.0,0.0,50,0.00,,,0.00,WUHU21623XXSP,2013-02-11 00:13:00,
2013-02-10 18:18:00,52.2,34.1,29.63,North,0,0.0,0.0,50,0.00,,,0.00,WUHU21623XXSP,2013-02-11 00:18:00,
2013-02-10 18:23:00,51.8,34.3,29.63,North,0,0.0,0.0,51,0.00,,,0.00,WUHU21623XXSP,2013-02-11 00:23:00,
2013-02-10 18:28:00,51.6,34.1,29.64,North,0,0.0,0.0,51,0.00,,,0.00,WUHU21623XXSP,2013-02-11 00:28:00,
2013-02-10 18:33:00,51.3,34.2,29.64,North,0,0.0,0.0,52,0.00,,,0.00,WUHU21623XXSP,2013-02-11 00:33:00,
2013-02-10 18:38:00,51.1,34.1,29.65,North,0,0.0,0.0,52,0.00,,,0.00,WUHU21623XXSP,2013-02-11 00:38:00,
2013-02-10 18:43:00,50.9,33.9,29.65,North,0,0.0,0.0,52,0.00,,,0.00,WUHU21623XXSP,2013-02-11 00:43:00,
2013-02-10 18:48:00,50.5,34.0,29.65,North,0,0.0,0.0,53,0.00,,,0.00,WUHU21623XXSP,2013-02-11 00:48:00,
2013-02-10 18:53:00,50.5,34.0,29.66,North,0,0.0,0.0,53,0.00,,,0.00,WUHU21623XXSP,2013-02-11 00:53:00,
2013-02-10 18:58:00,50.4,33.9,29.66,North,0,0.0,0.0,53,0.00,,,0.00,WUHU21623XXSP,2013-02-11 00:58:00,
2013-02-10 19:03:00,50.2,33.7,29.66,North,0,0.0,0.0,53,0.00,,,0.00,WUHU21623XXSP,2013-02-11 01:03:00,
2013-02-10 19:08:00,50.2,33.7,29.66,North,0,0.0,0.0,53,0.00,,,0.00,WUHU21623XXSP,2013-02-11 01:08:00,
2013-02-10 19:13:00,49.8,33.8,29.66,North,0,0.0,0.0,54,0.00,,,0.00,WUHU21623XXSP,2013-02-11 01:13:00,
2013-02-10 19:18:00,49.6,33.6,29.66,North,0,0.0,0.0,54,0.00,,,0.00,WUHU21623XXSP,2013-02-11 01:18:00,
2013-02-10 19:23:00,49.6,34.1,29.66,North,0,0.0,0.0,55,0.00,,,0.00,WUHU21623XXSP,2013-02-11 01:23:00,
2013-02-10 19:28:00,49.3,33.7,29.67,North,0,0.0,0.0,55,0.00,,,0.00,WUHU21623XXSP,2013-02-11 01:28:00,
2013-02-10 19:33:00,49.1,34.0,29.67,North,0,0.0,0.0,56,0.00,,,0.00,WUHU21623XXSP,2013-02-11 01:33:00,
2013-02-10 19:38:00,48.7,33.7,29.67,North,0,0.0,0.0,56,0.00,,,0.00,WUHU21623XXSP,2013-02-11 01:38:00,
2013-02-10 19:43:00,48.6,33.5,29.67,North,0,0.0,0.0,56,0.00,,,0.00,WUHU21623XXSP,2013-02-11 01:43:00,
2013-02-10 19:48:00,48.6,33.5,29.67,North,0,0.0,0.0,56,0.00,,,0.00,WUHU21623XXSP,2013-02-11 01:48:00,
2013-02-10 19:53:00,48.6,33.5,29.68,North,0,0.0,0.0,56,0.00,,,0.00,WUHU21623XXSP,2013-02-11 01:53:00,
2013-02-10 19:58:00,48.4,33.4,29.68,North,0,0.0,0.0,56,0.00,,,0.00,WUHU21623XXSP,2013-02-11 01:58:00,
2013-02-10 20:03:00,48.4,33.4,29.69,North,0,0.0,0.0,56,0.00,,,0.00,WUHU21623XXSP,2013-02-11 02:03:00,
2013-02-10 20:08:00,48.0,33.2,29.69,North,0,0.0,0.0,56,0.00,,,0.00,WUHU21623XXSP,2013-02-11 02:08:00,
2013-02-10 20:13:00,48.0,33.0,29.69,North,0,0.0,0.0,57,0.00,,,0.00,WUHU21623XXSP,2013-02-11 02:13:00,
2013-02-10 20:18:00,47.8,33.3,29.69,North,0,0.0,0.0,57,0.00,,,0.00,WUHU21623XXSP,2013-02-11 02:18:00,
2013-02-10 20:23:00,47.7,33.1,29.70,North,0,0.0,0.0,57,0.00,,,0.00,WUHU21623XXSP,2013-02-11 02:23:00,
2013-02-10 20:28:00,47.7,33.1,29.70,North,0,0.0,0.0,57,0.00,,,0.00,WUHU21623XXSP,2013-02-11 02:28:00,
2013-02-10 20:33:00,47.5,33.0,29.70,North,0,0.0,0.0,57,0.00,,,0.00,WUHU21623XXSP,2013-02-11 02:33:00,
2013-02-10 20:38:00,47.3,32.8,29.70,North,0,0.0,0.0,57,0.00,,,0.00,WUHU21623XXSP,2013-02-11 02:38:00,
2013-02-10 20:43:00,46.9,33.1,29.71,North,0,0.0,0.0,58,0.00,,,0.00,WUHU21623XXSP,2013-02-11 02:43:00,
2013-02-10 20:48:00,46.8,32.9,29.71,North,0,0.0,0.0,58,0.00,,,0.00,WUHU21623XXSP,2013-02-11 02:48:00,
2013-02-10 20:53:00,46.6,32.5,29.71,North,0,0.0,0.0,58,0.00,,,0.00,WUHU21623XXSP,2013-02-11 02:53:00,
2013-02-10 20:58:00,46.6,32.5,29.72,North,0,0.0,0.0,58,0.00,,,0.00,WUHU21623XXSP,2013-02-11 02:58:00,
2013-02-10 21:03:00,46.2,32.2,29.72,North,0,0.0,0.0,58,0.00,,,0.00,WUHU21623XXSP,2013-02-11 03:03:00,
2013-02-10 21:08:00,46.0,32.0,29.72,North,0,0.0,0.0,58,0.00,,,0.00,WUHU21623XXSP,2013-02-11 03:08:00,
2013-02-10 21:13:00,45.7,31.7,29.73,North,0,0.0,0.0,58,0.00,,,0.00,WUHU21623XXSP,2013-02-11 03:13:00,
2013-02-10 21:18:00,45.3,31.4,29.73,North,0,0.0,0.0,58,0.00,,,0.00,WUHU21623XXSP,2013-02-11 03:18:00,
2013-02-10 21:23:00,45.1,31.2,29.74,North,0,0.0,0.0,58,0.00,,,0.00,WUHU21623XXSP,2013-02-11 03:23:00,
2013-02-10 21:28:00,44.6,30.7,29.74,North,0,0.0,0.0,58,0.00,,,0.00,WUHU21623XXSP,2013-02-11 03:28:00,
2013-02-10 21:33:00,44.2,31.0,29.74,North,0,0.0,0.0,59,0.00,,,0.00,WUHU21623XXSP,2013-02-11 03:33:00,
2013-02-10 21:38:00,44.1,30.6,29.74,North,0,0.0,0.0,59,0.00,,,0.00,WUHU21623XXSP,2013-02-11 03:38:00,
2013-02-10 21:43:00,43.7,30.3,29.74,North,0,0.0,0.0,59,0.00,,,0.00,WUHU21623XXSP,2013-02-11 03:43:00,
2013-02-10 21:48:00,43.5,30.1,29.74,North,0,0.0,0.0,59,0.00,,,0.00,WUHU21623XXSP,2013-02-11 03:48:00,
2013-02-10 21:53:00,43.3,29.9,29.74,North,0,0.0,0.0,59,0.00,,,0.00,WUHU21623XXSP,2013-02-11 03:53:00,
2013-02-10 21:58:00,43.3,29.9,29.75,North,0,0.0,0.0,59,0.00,,,0.00,WUHU21623XXSP,2013-02-11 03:58:00,
2013-02-10 22:03:00,43.3,29.9,29.74,North,0,0.0,0.0,59,0.00,,,0.00,WUHU21623XXSP,2013-02-11 04:03:00,
2013-02-10 22:08:00,43.3,29.9,29.74,North,0,0.0,0.0,59,0.00,,,0.00,WUHU21623XXSP,2013-02-11 04:08:00,
2013-02-10 22:13:00,43.0,29.6,29.75,North,0,0.0,0.0,59,0.00,,,0.00,WUHU21623XXSP,2013-02-11 04:13:00,
2013-02-10 22:18:00,43.2,29.8,29.75,North,0,0.0,0.0,59,0.00,,,0.00,WUHU21623XXSP,2013-02-11 04:18:00,
2013-02-10 22:23:00,43.0,29.6,29.76,North,0,0.0,0.0,59,0.00,,,0.00,WUHU21623XXSP,2013-02-11 04:23:00,
2013-02-10 22:28:00,43.0,29.1,29.76,North,0,0.0,0.0,58,0.00,,,0.00,WUHU21623XXSP,2013-02-11 04:28:00,
2013-02-10 22:33:00,43.0,29.1,29.76,North,0,0.0,0.0,58,0.00,,,0.00,WUHU21623XXSP,2013-02-11 04:33:00,
2013-02-10 22:38:00,43.0,29.1,29.76,North,0,0.0,0.0,58,0.00,,,0.00,WUHU21623XXSP,2013-02-11 04:38:00,
2013-02-10 22:43:00,43.0,29.1,29.76,North,0,0.0,0.0,58,0.00,,,0.00,WUHU21623XXSP,2013-02-11 04:43:00,
2013-02-10 22:48:00,42.8,29.0,29.77,North,0,0.0,0.0,58,0.00,,,0.00,WUHU21623XXSP,2013-02-11 04:48:00,
2013-02-10 22:53:00,42.6,28.8,29.77,North,0,0.0,0.0,58,0.00,,,0.00,WUHU21623XXSP,2013-02-11 04:53:00,
2013-02-10 22:58:00,42.6,28.8,29.78,North,0,0.0,0.0,58,0.00,,,0.00,WUHU21623XXSP,2013-02-11 04:58:00,
2013-02-10 23:01:00,42.6,28.8,29.79,North,0,0.0,0.0,58,0.00,,,0.00,WUHU21623XXSP,2013-02-11 05:01:00,
2013-02-10 23:03:00,42.4,28.6,29.79,North,0,0.0,0.0,58,0.00,,,0.00,WUHU21623XXSP,2013-02-11 05:03:00,
2013-02-10 23:08:00,42.4,28.6,29.79,North,0,0.0,0.0,58,0.00,,,0.00,WUHU21623XXSP,2013-02-11 05:08:00,
2013-02-10 23:11:00,42.4,28.6,29.79,North,0,0.0,0.0,58,0.00,,,0.00,WUHU21623XXSP,2013-02-11 05:11:00,
2013-02-10 23:16:00,42.1,28.3,29.79,North,0,0.0,0.0,58,0.00,,,0.00,WUHU21623XXSP,2013-02-11 05:16:00,
2013-02-10 23:21:00,42.1,28.3,29.79,North,0,0.0,0.0,58,0.00,,,0.00,WUHU21623XXSP,2013-02-11 05:21:00,
2013-02-10 23:26:00,42.1,28.7,29.79,North,0,0.0,0.0,59,0.00,,,0.00,WUHU21623XXSP,2013-02-11 05:26:00,
2013-02-10 23:31:00,41.9,28.6,29.80,North,0,0.0,0.0,59,0.00,,,0.00,WUHU21623XXSP,2013-02-11 05:31:00,
2013-02-10 23:36:00,41.7,28.4,29.80,North,0,0.0,0.0,59,0.00,,,0.00,WUHU21623XXSP,2013-02-11 05:36:00,
2013-02-10 23:41:00,41.5,28.4,29.81,North,0,0.0,0.0,59,0.00,,,0.00,WUHU21623XXSP,2013-02-11 05:41:00,
2013-02-10 23:46:00,41.4,27.2,29.82,North,0,0.0,0.0,57,0.00,,,0.00,WUHU21623XXSP,2013-02-11 05:46:00,
2013-02-10 23:51:00,41.0,26.9,29.82,North,0,0.0,0.0,57,0.00,,,0.00,WUHU21623XXSP,2013-02-11 05:51:00,
2013-02-10 23:56:00,40.6,26.5,29.83,North,0,0.0,0.0,57,0.00,,,0.00,WUHU21623XXSP,2013-02-11 05:56:00,